Regional Weather Roundup
Issued by NWS

Home | Current Version | Previous Version | Graphics & Text | Print | Product List | Glossary On
Versions: 1 2 3 4 5 6 7 8 9 10 11 12 13 14 15 16 17 18 19 20 21 22 23 24 25 26 27 28 29 30 31 32 33 34 35 36 37 38 39 40 41 42 43 44 45 46 47 48 49 50
000
ASUS43 KLOT 161210
RWRIL

ILLINOIS REGIONAL WEATHER ROUNDUP
NATIONAL WEATHER SERVICE CHICAGO/ROMEOVILLE IL
700 AM CDT WED APR 16 2014

NOTE: "FAIR" INDICATES FEW OR NO CLOUDS BELOW 12,000 FEET WITH NO
SIGNIFICANT WEATHER AND/OR OBSTRUCTIONS TO VISIBILITY.

* THESE STATIONS ARE NOT UNDER NWS QUALITY CONTROL. THEY ALSO MAY NOT
  REPORT WEATHER SUCH AS PRECIPITATION OR FOG.

ILZ001-002-007-009-015-016-024-161300-
NORTHWEST ILLINOIS

CITY           SKY/WX    TMP DP  RH WIND       PRES   REMARKS
MOLINE         MOCLDY    35  23  61 SE13      30.14S WCI  26
6HR MIN TEMP:  27; 6HR MAX TEMP:  35;

STERLING*      CLEAR     32  23  69 SE8       30.20R WCI  25
SAVANNA*       CLOUDY    34  24  65 SE12      30.18S WCI  26
$$

ILZ003-004-008-010-011-017-018-161300-
NORTH CENTRAL ILLINOIS

CITY           SKY/WX    TMP DP  RH WIND       PRES   REMARKS
ROCKFORD       PTCLDY    30  23  75 SE10      30.25R WCI  21
6HR MIN TEMP:  27; 6HR MAX TEMP:  30;

FREEPORT*      MOCLDY    31  27  84 SE5       30.22R WCI  27
ROCHELLE*        N/A     30  25  82 SE12      30.24R WCI  21
DE KALB*       FAIR      28  23  81 SE10      30.25R WCI  19
PERU*          CLEAR     32  26  76 S10       30.23S WCI  24
$$

ILZ005-006-012>014-019>023-161300-
NORTHEAST ILLINOIS

CITY           SKY/WX    TMP DP  RH WIND       PRES   REMARKS
CHICAGO-OHARE  PTCLDY    31  20  63 S9        30.28R WCI  23
6HR MIN TEMP:  26; 6HR MAX TEMP:  31;

CHICAGO-MIDWAY PTCLDY    32  20  61 S9        30.29R WCI  24
6HR MIN TEMP:  31; 6HR MAX TEMP:  33;

AURORA         CLEAR     29  23  78 SE8       30.26R WCI  21
6HR MIN TEMP:  26; 6HR MAX TEMP:  29;

LANSING*       CLEAR     30  20  65 S9        30.30R WCI  22
WAUKEGAN       CLEAR     31  20  63 S9        30.27R WCI  23
6HR MIN TEMP:  22; 6HR MAX TEMP:  31;

DUPAGE AIRPORT CLEAR     30  22  72 S10       30.26R WCI  21
6HR MIN TEMP:  26; 6HR MAX TEMP:  30;

KANKAKEE*      CLEAR     31  23  72 SE7       30.30R WCI  24
WHEELING       CLEAR     31  22  69 S8        30.29R WCI  23
6HR MIN TEMP:  27; 6HR MAX TEMP:  31;

MORRIS*        CLEAR     32  23  68 SE9       30.26S WCI  24
ROMEOVILLE*    CLEAR     30  23  73 S9        30.28R WCI  22
NORTHERLY ISL    N/A     32  20  61 S8          N/A  WCI  25
$$

LMZ740>746-161300-
SOUTHERN LAKE MICHIGAN

STATION/POSITION SKY/WX   TEMP    WIND        PRES    VSBY  WAVE
                          AIR SEA DIR/SP/G                  HT/PER
                          (F)     (DEG/KT/KT) (MB)    (MI)  (FT/S)
WAUKEGAN HARBOR            35     190/ 14/ 18 1026.4R
HARRISON CRIB              34     170/ 20/ 24   N/A
BURNHAM HARBOR             33     170/  9/ 12   N/A
CALUMET HARBOR             31     150/  7/ 11 1026.5R
MICHIGAN CITY              30     140/ 12/ 17   N/A
$$

ILZ025>027-034>036-040-047-049-050-058-095>099-161300-
WEST-CENTRAL ILLINOIS

CITY           SKY/WX    TMP DP  RH WIND       PRES   REMARKS
QUINCY         CLEAR     37  22  54 S16G22    30.13R WCI  28
GALESBURG*     PTCLDY    34  27  74 SE12      30.15S WCI  26
MACOMB*        PTCLDY    34  26  72 SE14      30.17S WCI  25
JACKSONVILLE*  CLEAR     36  24  61 SE13G20   30.20S WCI  28
PITTSFIELD*    CLEAR     35  27  71 SE10      30.18R WCI  27
$$

ILZ028>032-037-038-041>044-048-051>054-059>061-161300-
CENTRAL ILLINOIS

CITY           SKY/WX    TMP DP  RH WIND       PRES   REMARKS
PONTIAC        CLEAR     34  27  75 SE10      30.26S WCI  26
BLOOMINGTON    CLEAR     29  23  78 SE15      30.25R WCI  18
DECATUR        CLEAR     33  25  72 SE10      30.27R WCI  25
PEORIA         CLEAR     36  23  59 S12       30.21S WCI  28
6HR MIN TEMP:  33; 6HR MAX TEMP:  36;

LACON*         CLEAR     32  25  74 S6        30.23R WCI  26
LINCOLN*       CLEAR     33  27  80 SE9       30.26R WCI  25
SPRINGFIELD    CLEAR     36  23  59 S15       30.24R WCI  27
6HR MIN TEMP:  33; 6HR MAX TEMP:  36;

TAYLORVILLE    CLEAR     32  27  80 SE12      30.25R WCI  23
$$

ILZ033-039-045-046-055>057-062-063-161300-
EAST-CENTRAL ILLINOIS

CITY           SKY/WX    TMP DP  RH WIND       PRES   REMARKS
CHAMPAIGN      CLEAR     31  25  78 SE10      30.29R WCI  22
RANTOUL*       CLEAR     32  25  76 CALM      30.31R
MATTOON        CLEAR     32  24  72 SE12      30.29R WCI  23
PARIS*         CLEAR     31  25  77 SE8       30.33R WCI  24
$$

ILZ079-100>102-161300-
SOUTHWEST ILLINOIS

CITY           SKY/WX    TMP DP  RH WIND       PRES   REMARKS
ALTON          PTCLDY    34  23  64 S12       30.24S WCI  25
BELLEVILLE     CLEAR     35  26  69 SE10      30.26R WCI  28
CAHOKIA*       CLEAR     36  26  67 SE8       30.24S WCI  30
SPARTA*        FAIR      32  27  80 SE6       30.27S WCI  26
$$

ILZ064>066-069>071-074>076-080>082-084>086-088>090-092>094-161300-
SOUTH-CENTRAL ILLINOIS

CITY           SKY/WX    TMP DP  RH WIND       PRES   REMARKS
CARBONDALE     CLEAR     35  26  69 SE6       30.29R WCI  30
6HR MIN TEMP:  32; 6HR MAX TEMP:  36;

CAIRO*         CLEAR     39  27  60 E7        30.30R WCI  34
MARION         PTCLDY    34  25  69 SE9       30.30S WCI  26
MT. VERNON     CLEAR     34  19  55 SE5       30.31R WCI  30
CENTRALIA*       N/A     35  25  66 SE9       30.29R WCI  27
SALEM*         CLEAR     35  27  73 SE5       30.29S WCI  31
METROPOLIS*    CLEAR     31  28  88 CALM      30.30R
$$

ILZ067-068-072-073-078-083-087-091-161300-
SOUTHEAST ILLINOIS

CITY           SKY/WX    TMP DP  RH WIND       PRES   REMARKS
FLORA*         CLEAR     31  27  85 SE6       30.32R WCI  26
FAIRFIELD*     CLEAR     34  28  80 SE6       30.32R WCI  29
HARRISBURG*    CLEAR     34  27  73 E3        30.33R
ROBINSON*      CLEAR     34  27  76 SE8       30.35R WCI  27
CARMI*         CLEAR     37  29  75 SE12      30.33R WCI  29
$$

ABBREVIATIONS USED IN REMARKS
   TC - TEMPERATURE IN CELSIUS
  WCI - WIND CHILL INDEX
   HX - HEAT INDEX
  VSB - VISIBILITY
$$




USA.gov is the U.S. government's official web portal to all federal, state and local government web resources and services.